Regional Weather Roundup
Issued by NWS State College, PA

Home | Current Version | Previous Version | Graphics & Text | Print | Product List | Glossary On
Versions: 1 2 3 4 5 6 7 8 9 10 11 12 13 14 15 16 17 18 19 20 21 22 23 24 25 26 27 28 29 30 31 32 33 34 35 36 37 38 39 40 41 42 43 44 45 46 47 48 49 50
000
ASUS41 KCTP 040303
RWRCTP

REGIONAL WEATHER ROUNDUP
NATIONAL WEATHER SERVICE STATE COLLEGE PA
1100 PM EDT FRI JUL 03 2015

Note: "fair" indicates few or no clouds below 12,000 feet with no
significant weather and/or obstructions to visibility.

* = STATION THAT DOES NOT REPORT PRECIPITATION /E.G. RAIN...SNOW...ETC/
    THUNDER OR FOG.

PAZ002>004-007>009-013>016-020>023-029>032-040400-
WESTERN PENNSYLVANIA

CITY           SKY/WX    TMP DP  RH WIND       PRES   REMARKS
ERIE           CLOUDY    65  48  54 E6        29.92S
MEADVILLE      CLOUDY    64  53  67 NE8       29.93S
FRANKLIN*      CLOUDY    68  59  73 CALM      29.93F
NEW CASTLE     FAIR      67  67 100 CALM      29.91S
BEAVER COUNTY  NOT AVBL
BUTLER*        CLOUDY    66  64  94 SE6       29.92S
PITTSBURGH INT CLOUDY    67  65  93 CALM      29.90R FOG
PITTSBURGH     CLOUDY    65  62  90 E7        29.88F FOG
INDIANA*       CLOUDY    66  64  94 CALM      29.97S FOG
LATROBE        NOT AVBL
WASHINGTON CO* NOT AVBL
$$

PAZ004>006-010>012-017>019-024>028-033>037-041-042-045-046-049>053-040400-
CENTRAL PENNSYLVANIA

CITY           SKY/WX    TMP DP  RH WIND       PRES   REMARKS
BRADFORD       CLOUDY    64  57  78 CALM      29.97R
DUBOIS         CLOUDY    69  59  70 SE5       29.94S
CLEARFIELD     LGT RAIN  68  61  78 CALM      29.96R
JOHNSTOWN      RAIN      62  59  90 SE10      29.96F FOG
ALTOONA        RAIN      66  63  90 S6        29.97R FOG
STATE COLLEGE  LGT RAIN  69  62  79 CALM      29.95S
WILLIAMSPORT   CLOUDY    71  63  75 E3        29.92S
SELINSGROVE    CLOUDY    69  65  86 CALM      29.94S
FT INDIANTOWN  CLOUDY    67  63  86 NE2       29.95R
CAPITAL CITY   CLOUDY    72  62  71 S3        29.94R
HARRISBURG     CLOUDY    71  64  78 CALM      29.93S
YORK           CLOUDY    71  61  70 SE3       29.95R
$$

PAZ038>040-043-044-047-048-054-055-060>062-067>071-040400-
EASTERN PENNSYLVANIA

CITY           SKY/WX    TMP DP  RH WIND       PRES   REMARKS
SCRANTON       MOCLDY    70  60  70 CALM      29.97R
MOUNT POCONO   PTCLDY    61  57  87 CALM      30.01S
ALLENTOWN      PTCLDY    74  61  63 CALM      29.96S
QUAKERTOWN*    MOCLDY    72  63  73 S3        29.98S
READING        PTCLDY    73  62  68 SE8       29.95R
LANCASTER      MOCLDY    70  65  84 SE6       29.95R
COATESVILLE    MOCLDY    70  64  83 SE5       29.98S
POTTSTOWN      MOCLDY    72  61  68 S5        29.98S
BLUE BELL      CLOUDY    72  64  78 CALM      29.96S
DOYLESTOWN     MOCLDY    70  63  78 S5        29.97R
WILLOW GROVE   NOT AVBL
NORTH PHILA    CLOUDY    73  60  63 S3        29.98S
PHILADELPHIA   CLOUDY    73  64  73 SE3       29.97S
$$



USA.gov is the U.S. government's official web portal to all federal, state and local government web resources and services.